Weather Roundup
Issued by NWS Springfield, MO

Home | Current Version | Previous Version | Text Only | Print | Product List | Glossary On
Versions: 1 2 3 4 5 6 7 8 9 10 11 12 13 14 15 16 17 18 19 20 21 22 23 24 25 26 27 28 29 30 31 32 33 34 35 36 37 38 39 40 41 42 43 44 45 46 47 48 49 50
995
NZUS99 KSGF 300407
HRRSGF

HOURLY WEATHER
NATIONAL WEATHER SERVICE SPRINGFIELD MO
1100 PM CDT FRI APR 29 2016

......SGF CWA......

CITY           SKY/WX    TMP DP  RH WIND       PRES   REMARKS
SPRINGFIELD    LGT RAIN  60  57  89 N7        29.81S
JOPLIN         RAIN      58  57  97 E18G25    29.76F FOG
WEST PLAINS    CLOUDY    60  57  89 E5        29.87F FOG
ROLLA          RAIN      56  55  97 E18G25    29.88F FOG
OSAGE BEACH    CLOUDY    57  48  72 NE12      29.88F

......SURROUNDING SGF CWA......

CITY           SKY/WX    TMP DP  RH WIND       PRES   REMARKS
CHANUTE        CLOUDY    60  56  86 E3        29.69R
PARSONS        CLOUDY    62  60  93 S5        29.69R
COFFEYVILLE    CLOUDY    63  60  90 S9G17     29.69R
EMPORIA        LGT RAIN  54  52  93 NE10      29.71S
GROVE OK       RAIN      61  61 100 E9G20     29.66F
ROGERS AR      HVY RAIN  63  63 100 CALM      29.78R FOG
SILOAM SPRINGS CLOUDY    64  55  72 E9        29.72F THUNDER
HARRISON AR    LGT RAIN  61  61 100 SE12      29.79F
NEAR YELLVILLE CLOUDY   N/A N/A N/A CALM      29.80S

......KANSAS AND MISSOURI......

CITY           SKY/WX    TMP DP  RH WIND       PRES   REMARKS
KANSAS CTY INT LGT RAIN  52  49  89 E18G24    29.81S FOG
DOWNTOWN KC    LGT RAIN  54  51  90 E15G22    29.79F
COLUMBIA       LGT RAIN  57  54  89 E8        29.91R
SEDALIA        LGT RAIN  57  55  93 SE21G32   29.85F
ST JOSEPH      CLOUDY    51  47  86 E15       29.85F
ST LOUIS       LGT RAIN  63  53  70 E12G20    29.95F
SPIRIT OF STL  LGT RAIN  61  55  82 SE5       29.95R
KIRKSVILLE     CLOUDY    50  46  86 E15G24    29.93F
WICHITA        CLOUDY    56  53  90 NE8       29.70R
TOPEKA         LGT RAIN  52  50  93 NE15      29.78F
OLATHE         LGT RAIN  54  52  93 E15       29.76F

......TENNESSEE......

CITY           SKY/WX    TMP DP  RH WIND       PRES   REMARKS
MEMPHIS        CLOUDY    65  61  87 SE7       29.82S
NASHVILLE      MOCLDY    66  58  75 E5        29.95F

......ARKANSAS.......

CITY           SKY/WX    TMP DP  RH WIND       PRES   REMARKS
FAYETTEVILLE   TSTM      64  63  96 SW6       29.76R FOG
FT SMITH       LGT RAIN  67  63  87 NE10      29.66R
LITTLE ROCK    TSTM      67  65  93 E7        29.80F

......OKLAHOMA.......

CITY           SKY/WX    TMP DP  RH WIND       PRES   REMARKS
TULSA          CLOUDY    66  63  90 S9        29.63F
PONCA CITY     CLOUDY    61  58  90 E5        29.66R
MCALESTER      CLOUDY    66  63  90 MISG      29.64F
OKLAHOMA CITY  CLOUDY    56  56 100 NW13      29.69S FOG

......IOWA............

CITY           SKY/WX    TMP DP  RH WIND       PRES   REMARKS
DES MOINES     CLOUDY    49  41  74 E15G23    30.01S
QUAD CITIES    CLOUDY    48  41  76 E16       30.05F

......ILLINOIS........

CITY           SKY/WX    TMP DP  RH WIND       PRES   REMARKS
QUINCY         LGT RAIN  53  47  79 E14       29.95F
CHICAGO        CLOUDY    43  37  79 E9        30.12F




USA.gov is the U.S. government's official web portal to all federal, state and local government web resources and services.